Caslav, Czech Republic

5:50 AM CEST on May 30, 2017 (GMT +0200)
Caslav

Weather History for LKCV - January, 2014

Change the Weather History Date:

Wednesday, January 29, 2014

  Actual Average Record
Temperature  
Mean Temperature 28 °F -  
Max Temperature 32 °F - - ()
Min Temperature 24 °F - - ()
Degree Days  
Heating Degree Days 37    
Moisture  
Dew Point 24 °F    
Average Humidity 82    
Maximum Humidity 93    
Minimum Humidity 69    
Precipitation  
Precipitation 0.00 in - - ()
Sea Level Pressure  
Sea Level Pressure 29.74 in    
Wind  
Wind Speed 6 mph ()    
Max Wind Speed 11 mph    
Max Gust Speed -    
Visibility 3.7 miles    
Events Snow    
T = Trace of Precipitation, MM = Missing Value Source: Averaged Metar Reports

Daily Weather History Graph

Daily Weather History Graph

Search for Another Location

Airport or City:

Trip Planner

Search our weather history database for the weather conditions in past years. The results will help you decide how hot, cold, wet, or windy it might be!

Date:

Astronomy

Jan. 29, 2014 Rise Set
Actual Time 7:36 AM CET 4:47 PM CET
Civil Twilight 7:01 AM CET 5:22 PM CET
Nautical Twilight 6:21 AM CET 6:01 PM CET
Astronomical Twilight 5:44 AM CET 6:39 PM CET
Moon 5:59 AM CET (1/29) 3:25 PM CET (1/29)
Length of Visible Light 10h 21m
Length of Day
9h 11m
Waning Crescent, 3% of the Moon is Illuminated
Jan 29
Waning Crescent
Jan 30
New
Feb 6
First Quarter
Feb 15
Full
Feb 22
Last Quarter

Hourly Weather History & Observations

Time (CET) Temp. Windchill Dew Point Humidity Pressure Visibility Wind Dir Wind Speed Gust Speed Precip Events Conditions
12:00 AM 26 °F - 24 °F 86% 29.70 in 4 mi NNE 4.5 mph - -   Mist
12:00 AM 26.6 °F 22.6 °F 23.0 °F 86% 29.62 in 3.7 mi NNE 3.5 mph - N/A   Overcast
1:00 AM 26 °F - 22 °F 81% 29.70 in 4 mi NNE 4.5 mph - -   Mist
1:00 AM 26.6 °F 22.6 °F 23.0 °F 86% 29.62 in 3.7 mi NNE 3.5 mph - N/A   Overcast
2:00 AM 26 °F - 23 °F 83% 29.71 in 4 mi NE 4.5 mph - -   Mist
2:00 AM 26.6 °F 22.6 °F 23.0 °F 86% 29.65 in 3.7 mi NE 3.5 mph - N/A   Overcast
3:00 AM 27 °F - 23 °F 79% 29.71 in 4 mi NE 4.5 mph - -   Mist
3:00 AM 26.6 °F 21.2 °F 23.0 °F 86% 29.65 in 3.7 mi NE 4.6 mph - N/A   Overcast
4:00 AM 26 °F - 22 °F 81% 29.71 in 4 mi ENE 6.7 mph - -   Mist
4:00 AM 26.6 °F 19.1 °F 23.0 °F 86% 29.65 in 3.7 mi ENE 6.9 mph - N/A   Overcast
5:00 AM 26 °F - 23 °F 83% 29.71 in 4 mi ENE 6.7 mph - -   Mist
5:00 AM 26.6 °F 19.1 °F 23.0 °F 86% 29.65 in 3.7 mi ENE 6.9 mph - N/A   Overcast
6:00 AM 26 °F - 22 °F 78% 29.72 in 5 mi ENE 6.7 mph - -   Mist
6:00 AM 24.8 °F 16.9 °F 21.2 °F 86% 29.65 in 5.0 mi ENE 6.9 mph - N/A   Overcast
6:49 AM 24.8 °F 16.1 °F 21.2 °F 86% 29.65 in 5.0 mi ENE 8.1 mph - N/A   Overcast
7:00 AM 25 °F - 22 °F 85% 29.73 in 5 mi ENE 8.9 mph - -   Mist
7:00 AM 24.8 °F 16.1 °F 21.2 °F 86% 29.65 in 5.0 mi ENE 8.1 mph - N/A   Overcast
8:00 AM 26 °F - 22 °F 80% 29.74 in 3 mi ENE 6.7 mph - -   Mist
8:00 AM 24.8 °F 16.1 °F 23.0 °F 93% 29.68 in 3.1 mi ENE 8.1 mph - N/A   Overcast
9:00 AM 27 °F - 23 °F 79% 29.75 in 4 mi East 4.5 mph - - Snow Light Snow
9:00 AM 26.6 °F 20.0 °F 23.0 °F 86% 29.68 in 3.7 mi East 5.8 mph - N/A Snow Light Snow
10:00 AM 29 °F - 25 °F 77% 29.76 in 3 mi SE 8.9 mph - - Snow Light Snow
10:00 AM 28.4 °F 20.4 °F 24.8 °F 86% 29.71 in 3.1 mi SE 8.1 mph - N/A Snow Light Snow
10:11 AM 28.4 °F 21.2 °F 24.8 °F 86% 29.71 in 2.8 mi SE 6.9 mph - N/A Snow Light Snow
11:00 AM 29 °F - 25 °F 78% 29.78 in 3 mi SE 4.5 mph - - Snow Light Snow
11:00 AM 28.4 °F 23.3 °F 24.8 °F 86% 29.71 in 2.8 mi SE 4.6 mph - N/A   Overcast
12:00 PM 30 °F - 25 °F 76% 29.78 in 2 mi East 6.7 mph - -   Mist
12:00 PM 30.2 °F 24.3 °F 24.8 °F 80% 29.71 in 2.5 mi East 5.8 mph - N/A   Overcast
1:00 PM 31 °F - 26 °F 75% 29.78 in 2 mi SE 6.7 mph - -   Mist
1:00 PM 32.0 °F 25.6 °F 26.6 °F 80% 29.71 in 2.5 mi SE 6.9 mph - N/A   Overcast
2:00 PM 31 °F - 26 °F 75% 29.78 in 3 mi SE 8.9 mph - -   Mist
2:00 PM 32.0 °F 24.2 °F 26.6 °F 80% 29.71 in 2.8 mi ESE 9.2 mph - N/A   Overcast
3:00 PM 31 °F - 26 °F 73% 29.78 in 3 mi East 4.5 mph - -   Mist
3:00 PM 30.2 °F 25.4 °F 24.8 °F 80% 29.71 in 2.8 mi East 4.6 mph - N/A   Overcast
3:12 PM 30.2 °F 25.4 °F 26.6 °F 86% 29.71 in 3.1 mi East 4.6 mph - N/A   Overcast
4:00 PM 31 °F - 26 °F 76% 29.79 in 3 mi East 4.5 mph - -   Mist
4:00 PM 30.2 °F 24.3 °F 26.6 °F 86% 29.74 in 3.1 mi East 5.8 mph - N/A   Overcast
4:25 PM 30.2 °F 24.3 °F 26.6 °F 86% 29.74 in 2.8 mi ENE 5.8 mph - N/A   Overcast
5:00 PM 31 °F - 25 °F 69% 29.80 in 3 mi SE 11.2 mph - -   Mist
5:00 PM 32.0 °F 23.6 °F 24.8 °F 75% 29.74 in 2.8 mi SE 10.4 mph - N/A   Overcast
5:31 PM 32.0 °F 24.8 °F 24.8 °F 75% 29.74 in 5.0 mi SE 8.1 mph - N/A   Overcast
6:00 PM 31 °F - 25 °F 69% 29.82 in 5 mi SE 8.9 mph - -   Mist
6:00 PM 32.0 °F 24.2 °F 24.8 °F 75% 29.77 in 5.0 mi SE 9.2 mph - N/A   Overcast
7:00 PM 30 °F - 26 °F 79% 29.83 in 4 mi ESE 6.7 mph - -   Mist
7:00 PM 30.2 °F 22.6 °F 26.6 °F 86% 29.77 in 4.3 mi ESE 8.1 mph - N/A   Overcast
8:00 PM 29 °F - 25 °F 79% 29.84 in 4 mi East 8.9 mph - -   Mist
8:00 PM 28.4 °F 20.4 °F 24.8 °F 86% 29.77 in 4.3 mi East 8.1 mph - N/A   Overcast
9:00 PM 29 °F - 25 °F 77% 29.86 in 4 mi East 8.9 mph - -   Mist
9:00 PM 28.4 °F 19.7 °F 24.8 °F 86% 29.80 in 4.3 mi East 9.2 mph - N/A   Overcast
10:00 PM 29 °F - 25 °F 79% 29.87 in 4 mi East 6.7 mph - -   Mist
10:00 PM 28.4 °F 21.2 °F 24.8 °F 86% 29.80 in 4.3 mi East 6.9 mph - N/A   Overcast
11:00 PM 29 °F - 25 °F 80% 29.89 in 4 mi ESE 6.7 mph - -   Mist
11:00 PM 28.4 °F 20.4 °F 24.8 °F 86% 29.83 in 4.3 mi ESE 8.1 mph - N/A   Overcast